Wind_Speed
45 47 47 47 48 51 54 56 59 57 64 63 63 66 69 72 74 77 76 77 76 75 73 70 64 61 60 57 56 56 56 52 48 47 50 47 48 43 39 38 45 46 47 46
45 47 49 48 48 53 55 58 60 63 61 65 66 72 75 74 74 75 77 77 76 73 70 68 64 64 60 58 56 55 52 52 53 48 47 44 43 42 42 38 38 40 44 47
49 52 52 48 50 55 56 58 60 64 65 65 69 74 75 77 78 79 78 76 74 72 69 66 63 63 62 60 56 55 53 44 46 46 46 44 39 39 41 41 35 37 41 45
54 56 55 51 54 56 55 58 61 65 66 70 73 74 76 74 78 78 76 74 71 68 66 62 63 63 62 60 57 53 51 46 44 45 43 39 36 37 37 38 35 36 37 36
57 57 55 50 53 53 55 54 61 65 68 71 75 76 72 74 76 78 73 72 66 64 65 65 67 64 62 59 56 55 50 45 46 45 42 40 39 38 35 34 33 37 33 34
57 59 57 52 54 57 59 59 63 66 68 72 76 80 77 76 75 72 71 65 64 68 71 70 66 64 61 58 57 55 48 45 44 43 42 39 39 39 38 31 29 31 32 32
58 60 56 52 56 57 60 65 65 67 68 74 76 78 81 81 74 72 68 67 70 69 64 59 59 58 52 49 50 51 48 44 43 42 41 39 35 36 36 27 27 28 28 26
58 61 56 55 56 60 64 64 65 66 71 73 76 76 78 77 73 70 71 70 64 64 61 61 58 53 54 52 49 45 42 39 39 41 38 35 35 33 31 24 26 23 26 23
55 58 51 56 58 61 62 63 64 68 71 77 78 75 78 72 69 69 70 65 65 63 58 54 55 52 51 51 46 39 35 33 32 35 36 32 31 29 24 22 24 18 28 27
60 50 52 58 59 62 62 62 65 70 73 76 75 75 73 71 69 68 64 63 59 57 54 50 47 42 43 38 34 31 32 28 27 27 33 30 26 23 19 20 20 23 32 29
57 51 53 54 59 61 59 62 68 69 72 73 73 74 70 66 67 62 61 56 53 52 48 42 38 36 35 33 31 28 24 20 20 19 23 22 19 18 18 20 17 31 31 25
55 52 52 54 59 57 59 64 64 66 68 70 71 69 63 65 59 59 56 50 48 46 43 40 38 34 30 27 24 19 12 9 8 12 15 14 16 17 19 16 22 32 29 23
48 49 53 58 57 57 59 59 62 64 68 66 67 62 60 57 52 51 45 45 45 47 43 38 34 30 27 24 21 16 10 7 5 7 11 15 19 20 13 16 28 31 27 37
47 51 53 56 55 54 56 59 60 64 64 64 64 56 56 48 46 44 44 48 45 41 43 40 36 33 29 26 21 17 11 5 2 6 13 20 23 16 17 25 32 32 34 52
45 45 47 50 51 53 55 56 58 61 60 60 57 52 51 40 40 39 46 41 41 42 41 39 37 31 25 20 17 12 8 5 3 10 19 20 18 15 22 38 33 31 44 61
44 48 49 50 50 50 52 54 56 57 57 57 51 48 46 36 36 38 40 41 46 42 40 36 34 30 26 25 19 17 14 4 10 16 18 19 17 19 42 41 34 39 53 60
48 48 48 47 45 47 50 51 54 55 55 54 47 44 40 32 31 34 33 38 44 41 35 35 38 40 30 26 26 19 3 11 19 19 21 18 18 46 39 36 39 44 50 58
44 44 44 44 45 47 49 50 52 53 51 51 43 41 37 30 30 31 31 34 40 36 32 31 37 40 27 26 21 15 18 22 23 22 19 15 36 33 27 36 48 52 49 54
40 42 43 43 43 45 48 49 50 50 48 47 40 38 37 29 29 29 30 30 36 36 30 31 33 35 22 23 14 15 17 24 23 22 19 29 36 32 28 34 45 46 45 48
41 43 43 42 43 46 47 49 48 47 45 44 38 35 37 28 28 30 26 28 32 35 32 30 30 30 21 19 13 20 21 24 26 25 31 37 36 33 36 39 42 43 41 42
41 42 42 42 44 45 46 46 45 43 42 41 35 33 34 24 24 25 22 24 26 29 27 27 26 24 17 15 12 19 22 20 24 31 28 31 29 31 35 34 39 42 38 36
41 42 43 44 45 45 44 43 43 40 39 37 33 32 32 23 22 25 19 20 23 24 23 23 22 20 16 12 13 19 24 25 24 27 32 32 31 29 28 35 39 40 37 35
41 42 44 44 44 43 41 42 40 37 36 33 30 30 30 20 16 21 20 19 20 20 20 21 19 18 15 10 13 22 25 27 29 30 31 30 31 32 34 34 33 30 27 26
41 43 43 43 41 40 40 39 36 36 33 31 27 27 27 22 14 17 15 14 17 18 18 18 15 16 13 11 13 20 24 27 27 27 28 31 33 32 34 36 32 30 31 29
41 41 42 40 38 38 37 34 34 35 31 28 26 25 22 20 16 14 16 14 14 15 15 13 11 12 12 11 10 18 24 26 27 28 28 26 29 30 29 28 28 29 30 26
39 40 36 35 36 35 32 31 33 32 29 27 24 24 20 20 15 12 14 13 11 12 12 9 6 6 9 9 13 17 25 27 28 27 26 26 27 27 27 26 24 22 22 23
36 33 34 35 34 32 30 31 33 29 27 26 23 23 19 19 15 14 13 13 10 8 10 8 4 3 5 6 8 13 18 24 27 27 27 27 26 25 23 22 21 22 22 21
Wind_Direction
305 305 307 309 310 309 309 309 309 311 311 312 312 312 314 314 311 311 309 307 306 304 302 301 302 300 299 299 296 296 292 288 287 283 284 287 295 281 271 270 256 262 263 259
303 304 304 305 309 308 309 309 309 310 313 313 316 316 316 316 315 311 309 306 305 304 303 303 304 300 299 299 299 294 295 284 281 284 281 283 292 284 268 274 274 267 263 262
307 305 304 308 309 308 311 310 310 312 315 315 316 315 316 317 315 313 311 309 307 305 302 303 302 297 296 295 296 293 291 288 284 276 275 278 285 291 277 273 274 268 274 265
308 308 308 314 311 310 312 312 312 313 314 316 315 315 319 318 315 314 311 310 307 305 306 305 302 298 295 293 292 289 286 283 280 278 271 274 281 291 296 275 275 276 276 268
308 307 309 312 310 311 311 313 310 313 314 316 315 315 321 318 316 314 313 312 309 309 309 307 305 303 300 299 296 292 287 280 271 275 268 269 277 287 295 279 275 280 275 261
306 306 308 313 308 310 311 315 315 315 315 315 315 317 321 320 316 314 314 313 310 309 309 307 305 303 302 300 296 293 288 279 269 267 267 268 274 281 292 283 274 279 274 250
305 304 309 309 308 311 313 316 317 315 316 317 319 321 323 321 320 320 319 315 312 311 311 310 307 305 306 305 298 292 287 281 270 261 263 264 272 279 289 278 271 276 259 214
305 303 312 311 312 311 313 314 314 315 317 318 320 324 322 323 323 320 319 318 316 316 314 311 307 304 306 304 300 290 284 283 274 257 257 263 269 276 287 263 271 271 216 190
300 301 310 309 312 310 312 313 313 317 317 319 323 325 324 324 323 322 323 323 322 319 315 312 306 301 302 305 299 291 283 281 276 258 251 257 265 273 275 258 259 257 186 187
295 303 303 307 308 310 313 312 316 316 317 323 325 325 326 326 326 327 328 326 323 323 320 318 313 308 308 309 304 294 289 285 275 257 242 253 260 271 253 251 251 203 183 197
298 304 304 307 307 310 309 308 312 315 321 325 326 326 327 328 330 331 330 330 330 331 331 332 328 322 317 316 314 311 302 288 270 239 234 242 255 246 228 235 231 187 180 182
299 301 305 305 307 307 308 309 313 316 322 326 326 328 328 332 334 333 334 339 340 339 338 339 338 337 337 335 333 331 321 302 241 215 222 235 231 212 214 220 184 169 175 178
302 303 305 305 306 308 310 313 316 318 325 328 327 329 330 334 335 336 346 350 349 351 352 351 349 349 348 350 353 354 346 313 264 232 228 202 187 188 206 207 165 166 166 165
301 305 305 304 309 311 312 312 315 321 328 328 329 329 332 334 335 343 349 345 344 345 345 350 353 349 343 343 345 346 357 358 230 196 183 172 174 185 201 168 157 155 155 165
305 306 307 309 309 308 308 311 317 324 329 327 328 328 332 332 335 345 344 348 349 349 346 344 343 340 338 337 340 336 335 331 122 151 168 170 166 179 163 152 156 146 162 167
304 304 306 308 308 308 310 312 318 326 328 325 328 328 332 330 335 339 342 344 349 351 351 358 4 359 356 350 335 324 322 322 153 164 169 158 162 165 151 155 157 157 160 165
301 303 305 308 309 309 310 315 320 326 327 325 328 329 331 328 333 341 344 347 354 358 357 357 0 360 2 353 347 354 112 149 158 158 159 159 162 146 142 152 164 163 165 169
300 305 307 307 306 308 313 316 322 325 325 325 328 329 330 325 330 340 347 346 353 357 355 356 355 360 9 9 23 70 132 157 156 153 156 158 148 135 140 161 169 170 170 173
303 304 305 305 307 308 313 317 323 324 324 325 327 328 330 320 326 337 343 347 352 355 354 359 0 360 15 21 48 99 110 149 159 160 168 150 140 138 141 159 163 169 173 176
303 305 306 308 309 311 316 318 322 324 322 325 325 327 331 319 324 325 338 345 353 357 359 2 1 2 17 23 81 102 106 129 142 154 155 140 145 144 149 161 155 162 171 181
303 304 307 307 311 313 314 319 320 323 321 324 323 325 330 314 320 323 337 346 350 354 358 3 4 6 25 36 82 104 112 130 143 143 140 142 147 147 151 158 167 172 174 178
303 306 308 309 313 314 315 317 319 320 319 323 322 324 330 318 317 325 339 345 354 360 359 7 11 19 38 54 104 128 140 140 140 146 151 150 148 152 156 158 163 168 174 183
302 305 307 309 311 313 314 316 316 317 318 322 320 323 327 314 312 316 322 341 355 2 4 10 18 30 37 65 109 132 143 146 145 149 150 145 144 143 142 146 150 156 163 168
303 305 306 307 309 311 313 314 313 314 317 321 317 322 324 315 301 312 312 338 2 10 11 10 23 36 52 92 119 137 140 142 144 144 145 144 141 139 138 139 138 143 149 154
302 303 305 307 308 310 311 310 311 312 316 318 314 319 321 316 292 305 310 326 356 8 17 12 22 44 65 91 123 143 149 153 154 158 153 147 149 150 151 155 157 159 163 167
300 302 305 306 307 309 307 307 308 310 313 314 312 316 317 321 286 276 291 300 330 353 11 19 27 48 63 92 127 152 161 163 164 164 161 157 159 161 160 156 155 161 168 174
298 302 304 304 304 304 304 305 306 309 310 311 311 314 311 322 292 270 270 287 304 333 343 5 34 103 104 110 135 147 154 158 162 165 162 160 161 162 163 162 165 171 171 172
Height
5793 5787 5781 5776 5769 5761 5753 5745 5736 5736 5718 5713 5706 5696 5686 5676 5665 5650 5636 5621 5606 5594 5585 5573 5565 5554 5544 5539 5533 5528 5522 5518 5516 5513 5510 5507 5502 5498 5498 5497 5496 5498 5500 5501
5786 5777 5771 5766 5759 5749 5742 5732 5723 5714 5712 5696 5688 5674 5667 5656 5642 5629 5617 5603 5589 5577 5565 5553 5544 5532 5525 5521 5516 5511 5507 5504 5501 5497 5495 5493 5489 5485 5484 5484 5484 5484 5484 5485
5772 5765 5759 5756 5748 5738 5730 5719 5709 5699 5692 5685 5678 5663 5651 5637 5621 5606 5592 5578 5565 5554 5544 5535 5525 5514 5506 5501 5498 5492 5489 5487 5485 5482 5480 5479 5476 5474 5472 5471 5471 5471 5469 5470
5758 5750 5746 5741 5732 5724 5717 5706 5695 5686 5676 5668 5658 5652 5636 5618 5599 5586 5573 5560 5547 5535 5525 5517 5505 5496 5487 5483 5480 5474 5471 5470 5469 5467 5466 5465 5464 5462 5460 5459 5460 5459 5457 5456
5743 5737 5736 5731 5718 5711 5705 5704 5686 5676 5666 5655 5642 5633 5629 5605 5586 5568 5554 5540 5527 5517 5507 5500 5488 5478 5470 5467 5461 5456 5453 5452 5451 5451 5452 5452 5452 5451 5449 5447 5448 5447 5445 5445
5730 5724 5721 5717 5704 5698 5689 5685 5675 5663 5653 5641 5628 5611 5608 5593 5579 5559 5543 5525 5511 5501 5491 5479 5469 5458 5452 5448 5442 5437 5435 5434 5433 5435 5436 5438 5440 5440 5439 5437 5438 5435 5433 5435
5717 5710 5713 5704 5693 5684 5676 5670 5659 5647 5638 5627 5611 5596 5577 5563 5553 5539 5522 5511 5499 5486 5472 5462 5451 5441 5436 5430 5424 5419 5417 5416 5416 5419 5422 5425 5428 5429 5428 5428 5428 5426 5424 5429
5706 5695 5695 5688 5680 5672 5663 5653 5644 5636 5624 5614 5602 5587 5568 5552 5533 5518 5507 5497 5485 5470 5461 5448 5435 5426 5420 5413 5407 5401 5399 5400 5401 5404 5409 5413 5415 5419 5419 5419 5420 5419 5419 5424
5699 5691 5684 5674 5668 5658 5651 5642 5632 5622 5610 5596 5583 5570 5553 5537 5524 5510 5494 5480 5466 5453 5443 5434 5421 5411 5403 5397 5390 5386 5385 5386 5386 5390 5397 5401 5404 5408 5409 5411 5411 5412 5415 5422
5682 5688 5675 5665 5655 5645 5637 5628 5619 5608 5596 5582 5568 5553 5539 5524 5510 5497 5483 5468 5454 5441 5429 5418 5408 5399 5390 5383 5378 5375 5373 5374 5374 5377 5385 5391 5395 5398 5400 5404 5405 5407 5413 5422
5672 5671 5662 5654 5644 5636 5627 5618 5609 5597 5583 5570 5556 5542 5526 5513 5500 5486 5473 5460 5446 5432 5419 5409 5399 5391 5383 5376 5371 5368 5365 5363 5364 5369 5375 5381 5387 5390 5394 5397 5401 5405 5413 5421
5660 5655 5648 5642 5635 5627 5618 5609 5598 5588 5578 5560 5544 5532 5518 5505 5491 5477 5465 5453 5442 5428 5416 5406 5396 5387 5379 5373 5368 5363 5361 5359 5360 5364 5370 5375 5380 5385 5390 5395 5397 5404 5412 5421
5649 5641 5636 5628 5622 5615 5606 5597 5587 5577 5564 5553 5539 5524 5510 5498 5487 5476 5462 5450 5439 5427 5416 5405 5396 5387 5379 5373 5368 5364 5362 5360 5361 5363 5366 5371 5377 5384 5388 5392 5397 5405 5414 5421
5635 5630 5624 5616 5609 5601 5593 5586 5577 5566 5553 5539 5528 5516 5505 5494 5484 5472 5460 5449 5438 5427 5416 5406 5397 5388 5380 5373 5369 5365 5363 5361 5361 5363 5365 5371 5379 5384 5388 5391 5398 5408 5416 5425
5623 5617 5611 5604 5597 5590 5584 5576 5567 5556 5544 5532 5520 5510 5500 5491 5481 5469 5458 5447 5436 5425 5415 5405 5396 5387 5379 5373 5369 5364 5363 5362 5363 5365 5369 5375 5381 5384 5388 5396 5404 5412 5419 5430
5612 5606 5600 5594 5587 5580 5573 5565 5557 5547 5536 5525 5515 5504 5495 5486 5476 5466 5456 5446 5434 5423 5413 5404 5395 5387 5379 5372 5367 5364 5361 5362 5365 5368 5372 5377 5382 5387 5396 5404 5410 5416 5426 5438
5601 5594 5589 5583 5576 5570 5563 5555 5547 5538 5528 5518 5508 5499 5490 5482 5474 5465 5455 5445 5435 5424 5415 5406 5397 5388 5379 5371 5365 5360 5359 5363 5368 5373 5378 5383 5387 5395 5402 5408 5415 5423 5433 5443
5588 5583 5577 5572 5566 5560 5552 5545 5538 5529 5520 5510 5502 5493 5485 5478 5471 5462 5453 5444 5436 5427 5420 5410 5399 5391 5383 5375 5369 5365 5363 5370 5375 5380 5385 5388 5393 5400 5406 5412 5419 5429 5439 5450
5576 5572 5567 5562 5556 5549 5543 5535 5528 5520 5511 5502 5496 5488 5480 5474 5467 5459 5451 5444 5436 5428 5421 5414 5404 5395 5389 5382 5379 5375 5373 5376 5382 5388 5391 5394 5400 5408 5412 5419 5428 5438 5447 5456
5564 5560 5554 5549 5544 5539 5532 5526 5519 5512 5504 5496 5490 5483 5475 5470 5464 5457 5449 5443 5435 5428 5421 5415 5408 5400 5395 5390 5386 5384 5386 5387 5390 5395 5398 5403 5409 5415 5421 5429 5437 5446 5455 5464
5553 5548 5543 5538 5534 5528 5523 5517 5510 5503 5496 5489 5484 5478 5472 5466 5461 5455 5448 5443 5438 5430 5424 5419 5413 5406 5401 5397 5395 5392 5393 5395 5398 5402 5407 5411 5417 5424 5431 5437 5444 5452 5462 5470
5541 5538 5533 5528 5523 5518 5513 5507 5501 5495 5489 5483 5477 5472 5468 5462 5457 5451 5446 5442 5438 5431 5425 5421 5417 5411 5407 5405 5405 5404 5406 5407 5409 5413 5417 5421 5425 5430 5436 5442 5449 5457 5465 5473
5530 5527 5522 5518 5513 5508 5503 5497 5492 5487 5482 5477 5472 5467 5463 5460 5456 5452 5445 5441 5438 5433 5427 5422 5419 5416 5413 5411 5413 5413 5413 5414 5417 5421 5425 5428 5433 5437 5442 5448 5455 5462 5468 5475
5519 5515 5511 5507 5502 5497 5493 5488 5483 5479 5475 5470 5466 5463 5458 5454 5452 5450 5445 5440 5439 5434 5429 5425 5423 5421 5419 5419 5418 5419 5420 5422 5424 5427 5431 5435 5440 5444 5449 5455 5460 5466 5472 5478
5507 5503 5500 5496 5492 5488 5483 5479 5475 5470 5467 5464 5461 5458 5455 5451 5448 5447 5444 5440 5439 5436 5433 5428 5426 5426 5425 5423 5421 5423 5425 5428 5431 5434 5437 5441 5446 5450 5455 5460 5465 5470 5476 5481
5495 5492 5489 5486 5482 5478 5474 5471 5467 5463 5460 5458 5455 5452 5450 5447 5444 5444 5443 5440 5439 5438 5435 5432 5430 5428 5427 5428 5429 5431 5432 5434 5437 5440 5443 5446 5450 5454 5459 5463 5467 5472 5477 5482
5484 5482 5479 5476 5472 5469 5466 5463 5459 5456 5453 5451 5449 5447 5444 5443 5440 5439 5439 5437 5437 5437 5435 5434 5432 5430 5430 5430 5430 5431 5434 5437 5440 5443 5447 5450 5454 5457 5460 5463 5467 5472 5476 5480